Actual water levels and discharges of Elbe river

Guaranteed water level and forecast    Ústí nad Labem-Střekov

Guaranteed water level
Nad 275 cm
on 05.03.2024 more information
Forecast
295 cm
on 06.03.2024 07:00
Tendency
Slowly decreasing
on 06.03.2024 tendency methodology
Assumption
280 cm
on 07.03.2024 07:00
(Source data ČHMÚ a Povodí Labe)

Děčín

Date and time (UTC) H (cm) Q (m³/s)
5. 3. 2024 13:40 280 434
5. 3. 2024 13:00 280 434
5. 3. 2024 12:00 280 434
5. 3. 2024 11:00 281 436
5. 3. 2024 10:00 281 436
5. 3. 2024 09:00 282 439
5. 3. 2024 08:00 284 444
5. 3. 2024 07:00 286 449
5. 3. 2024 06:00 287 451
5. 3. 2024 05:00 286 449
5. 3. 2024 04:00 284 444
5. 3. 2024 03:00 282 439
5. 3. 2024 02:00 279 431
5. 3. 2024 01:00 277 427

H - water level, Q - discharge

Ústí nad Labem

Date and time (UTC) H (cm) Q (m³/s)
5. 3. 2024 13:40 303 430
5. 3. 2024 13:00 303 430
5. 3. 2024 12:00 302 427
5. 3. 2024 11:00 302 427
5. 3. 2024 10:00 302 427
5. 3. 2024 09:00 303 430
5. 3. 2024 08:00 302 427
5. 3. 2024 07:00 303 430
5. 3. 2024 06:00 303 430
5. 3. 2024 05:00 305 435
5. 3. 2024 04:00 309 445
5. 3. 2024 03:00 310 447
5. 3. 2024 02:00 310 447
5. 3. 2024 01:00 309 445

H - water level, Q - discharge
more information

Mělník

Date and time (UTC) H (cm) Q (m³/s)
5. 3. 2024 13:40 300 -
5. 3. 2024 13:00 300 -
5. 3. 2024 12:00 300 -
5. 3. 2024 11:00 301 -
5. 3. 2024 10:00 302 -
5. 3. 2024 09:00 303 -
5. 3. 2024 08:00 303 -
5. 3. 2024 07:00 302 360
5. 3. 2024 06:00 302 -
5. 3. 2024 05:00 302 -
5. 3. 2024 04:00 302 -
5. 3. 2024 03:00 301 -
5. 3. 2024 02:00 301 -
5. 3. 2024 01:00 301 -

H - water level, Q - discharge
more information

Kostelec nad Labem

Date and time (UTC) H (cm) Q (m³/s)
5. 3. 2024 13:45 - 160
5. 3. 2024 13:00 439 167
5. 3. 2024 12:00 440 166
5. 3. 2024 11:00 440 168
5. 3. 2024 10:00 440 168
5. 3. 2024 09:00 441 168
5. 3. 2024 08:00 439 168
5. 3. 2024 07:00 440 169
5. 3. 2024 06:00 440 167
5. 3. 2024 05:00 440 167
5. 3. 2024 04:00 440 167
5. 3. 2024 03:00 439 169
5. 3. 2024 02:00 439 167
5. 3. 2024 01:00 439 168

H - water level, Q - discharge
more information

Přelouč

Date and time (UTC) H (cm) Q (m³/s)
5. 3. 2024 13:30 136 101
5. 3. 2024 13:00 136 101
5. 3. 2024 12:00 135 100
5. 3. 2024 11:00 135 100
5. 3. 2024 10:00 134 99
5. 3. 2024 09:00 134 99
5. 3. 2024 08:00 135 100
5. 3. 2024 07:00 139 105
5. 3. 2024 06:00 140 106
5. 3. 2024 05:00 140 106
5. 3. 2024 04:00 140 106
5. 3. 2024 03:00 140 106
5. 3. 2024 02:00 140 106
5. 3. 2024 01:00 140 106

H - water level, Q - discharge
more information

Němčice

Date and time (UTC) H (cm) Q (m³/s)
5. 3. 2024 13:30 195 80
5. 3. 2024 13:00 195 80
5. 3. 2024 12:00 195 80
5. 3. 2024 11:00 195 80
5. 3. 2024 10:00 196 81
5. 3. 2024 09:00 196 81
5. 3. 2024 08:00 197 81
5. 3. 2024 07:00 198 82
5. 3. 2024 06:00 198 82
5. 3. 2024 05:00 199 83
5. 3. 2024 04:00 199 83
5. 3. 2024 03:00 199 83
5. 3. 2024 02:00 199 83
5. 3. 2024 01:00 199 83

H - water level, Q - discharge
Source data
Labe Basin Vltava Basin Povodí Moravy ČHMÚ
Po vodě ekologicky, levně a v pohodě
backgroung on backgroung off